TimeCDT,TemperatureF,Dew PointF,Humidity,Sea Level PressureIn,VisibilityMPH,Wind Direction,Wind SpeedMPH,Gust SpeedMPH,PrecipitationIn,Events,Conditions,WindDirDegrees,DateUTC
12:15 AM,49.5,43.2,79,29.94,10.0,Calm,Calm,-,N/A,,Clear,0,2013-09-30 05:15:00
12:35 AM,48.4,43.0,82,29.93,10.0,South,3.5,-,N/A,,Clear,170,2013-09-30 05:35:00
12:55 AM,48.0,43.2,83,29.93,10.0,South,3.5,-,N/A,,Clear,170,2013-09-30 05:55:00
1:15 AM,47.8,43.2,84,29.93,10.0,South,3.5,-,N/A,,Clear,170,2013-09-30 06:15:00
1:35 AM,47.5,43.0,84,29.93,10.0,SSE,3.5,-,N/A,,Clear,160,2013-09-30 06:35:00
1:55 AM,47.5,43.0,84,29.92,10.0,South,3.5,-,N/A,,Clear,170,2013-09-30 06:55:00
2:15 AM,47.7,43.0,84,29.92,10.0,South,3.5,-,N/A,,Clear,170,2013-09-30 07:15:00
2:35 AM,47.3,42.8,84,29.91,10.0,South,3.5,-,N/A,,Clear,170,2013-09-30 07:35:00
2:55 AM,47.8,42.8,83,29.91,10.0,South,3.5,-,N/A,,Clear,180,2013-09-30 07:55:00
3:15 AM,47.8,42.6,82,29.90,10.0,South,4.6,-,N/A,,Clear,180,2013-09-30 08:15:00
3:35 AM,48.0,42.3,80,29.91,10.0,South,4.6,-,N/A,,Clear,180,2013-09-30 08:35:00
3:55 AM,48.2,42.3,80,29.91,10.0,South,4.6,-,N/A,,Clear,170,2013-09-30 08:55:00
4:15 AM,48.4,42.1,79,29.91,10.0,South,4.6,-,N/A,,Clear,180,2013-09-30 09:15:00
4:35 AM,47.8,41.9,80,29.90,10.0,South,4.6,-,N/A,,Clear,180,2013-09-30 09:35:00
4:55 AM,48.2,41.9,79,29.89,10.0,South,4.6,-,N/A,,Clear,170,2013-09-30 09:55:00
5:15 AM,48.6,41.9,78,29.88,10.0,South,5.8,-,N/A,,Clear,170,2013-09-30 10:15:00
5:35 AM,48.4,41.9,78,29.88,10.0,South,4.6,-,N/A,,Clear,170,2013-09-30 10:35:00
5:55 AM,48.2,41.9,79,29.88,10.0,South,4.6,-,N/A,,Clear,180,2013-09-30 10:55:00
6:15 AM,48.6,41.9,78,29.88,10.0,South,3.5,-,N/A,,Clear,190,2013-09-30 11:15:00
6:35 AM,49.1,42.1,77,29.88,10.0,South,5.8,-,N/A,,Clear,190,2013-09-30 11:35:00
6:55 AM,49.5,41.9,75,29.87,10.0,South,5.8,-,N/A,,Clear,190,2013-09-30 11:55:00
7:15 AM,50.2,42.1,74,29.86,10.0,South,8.1,-,N/A,,Clear,190,2013-09-30 12:15:00
7:35 AM,50.9,41.9,71,29.86,10.0,South,5.8,-,N/A,,Clear,190,2013-09-30 12:35:00
7:55 AM,50.9,41.9,71,29.86,10.0,South,5.8,-,N/A,,Clear,190,2013-09-30 12:55:00
8:15 AM,52.5,42.4,69,29.85,10.0,South,6.9,-,N/A,,Clear,180,2013-09-30 13:15:00
8:35 AM,54.3,42.8,65,29.85,10.0,South,5.8,-,N/A,,Clear,190,2013-09-30 13:35:00
8:55 AM,55.8,42.8,62,29.85,10.0,South,9.2,-,N/A,,Clear,180,2013-09-30 13:55:00
9:15 AM,56.5,42.4,59,29.84,10.0,South,11.5,17.3,N/A,,Clear,190,2013-09-30 14:15:00
9:35 AM,58.6,42.1,54,29.84,10.0,SSW,8.1,17.3,N/A,,Clear,210,2013-09-30 14:35:00
9:55 AM,60.1,41.9,51,29.84,10.0,SSW,8.1,18.4,N/A,,Clear,200,2013-09-30 14:55:00
10:15 AM,61.7,41.9,48,29.83,10.0,SSW,12.7,25.3,N/A,,Clear,210,2013-09-30 15:15:00
10:35 AM,63.5,42.3,46,29.82,10.0,South,11.5,17.3,N/A,,Clear,180,2013-09-30 15:35:00
10:55 AM,63.5,41.9,45,29.81,10.0,SSW,17.3,26.5,N/A,,Clear,200,2013-09-30 15:55:00
11:15 AM,63.9,41.7,44,29.81,10.0,South,13.8,23.0,N/A,,Clear,190,2013-09-30 16:15:00
11:35 AM,64.6,42.1,44,29.80,10.0,SSW,9.2,26.5,N/A,,Clear,200,2013-09-30 16:35:00
11:55 AM,66.2,41.5,41,29.79,10.0,SSW,12.7,23.0,N/A,,Clear,200,2013-09-30 16:55:00
12:15 PM,66.4,40.3,38,29.79,10.0,SSW,13.8,23.0,N/A,,Clear,200,2013-09-30 17:15:00
12:35 PM,66.4,40.3,38,29.78,10.0,South,13.8,25.3,N/A,,Clear,190,2013-09-30 17:35:00
12:55 PM,66.2,40.3,39,29.78,10.0,South,11.5,24.2,N/A,,Clear,190,2013-09-30 17:55:00
1:15 PM,66.4,39.6,37,29.77,10.0,South,16.1,31.1,N/A,,Clear,190,2013-09-30 18:15:00
1:35 PM,68.0,40.3,36,29.75,10.0,SSW,13.8,20.7,N/A,,Clear,210,2013-09-30 18:35:00
1:55 PM,68.2,39.7,35,29.75,10.0,SW,11.5,24.2,N/A,,Clear,220,2013-09-30 18:55:00
2:15 PM,68.5,39.7,35,29.75,10.0,SSW,11.5,23.0,N/A,,Clear,200,2013-09-30 19:15:00
2:35 PM,68.7,38.7,33,29.75,10.0,SSW,13.8,28.8,N/A,,Clear,200,2013-09-30 19:35:00
2:55 PM,68.9,38.7,33,29.75,10.0,SSW,11.5,25.3,N/A,,Clear,210,2013-09-30 19:55:00
3:15 PM,68.9,38.7,33,29.74,10.0,SSW,13.8,23.0,N/A,,Clear,210,2013-09-30 20:15:00
3:35 PM,68.9,39.0,34,29.73,10.0,SW,13.8,20.7,N/A,,Clear,220,2013-09-30 20:35:00
3:55 PM,69.1,38.8,33,29.73,10.0,SW,13.8,24.2,N/A,,Clear,220,2013-09-30 20:55:00
4:15 PM,68.9,39.2,34,29.73,10.0,SW,12.7,23.0,N/A,,Clear,230,2013-09-30 21:15:00
4:35 PM,68.7,39.4,34,29.73,10.0,SW,10.4,19.6,N/A,,Clear,220,2013-09-30 21:35:00
4:55 PM,66.4,38.7,36,29.73,10.0,SSW,10.4,19.6,N/A,,Clear,200,2013-09-30 21:55:00
5:15 PM,64.9,41.2,42,29.74,10.0,South,4.6,-,N/A,,Clear,190,2013-09-30 22:15:00
5:35 PM,64.8,41.4,42,29.73,10.0,SSW,6.9,-,N/A,,Clear,210,2013-09-30 22:35:00
5:55 PM,65.7,39.9,39,29.74,10.0,SW,6.9,-,N/A,,Clear,220,2013-09-30 22:55:00
6:15 PM,64.4,40.6,42,29.74,10.0,SSW,8.1,-,N/A,,Clear,200,2013-09-30 23:15:00
6:35 PM,63.1,41.2,45,29.75,10.0,SSW,6.9,-,N/A,,Clear,200,2013-09-30 23:35:00
6:55 PM,61.9,41.5,47,29.75,10.0,SSW,5.8,-,N/A,,Clear,210,2013-09-30 23:55:00
7:15 PM,61.2,41.9,49,29.75,10.0,SSW,4.6,-,N/A,,Clear,200,2013-10-01 00:15:00
7:35 PM,59.9,42.3,52,29.76,10.0,SSW,3.5,-,N/A,,Clear,200,2013-10-01 00:35:00
7:55 PM,59.0,42.8,55,29.76,10.0,South,4.6,-,N/A,,Clear,190,2013-10-01 00:55:00
8:15 PM,58.1,42.8,57,29.76,10.0,SSW,3.5,-,N/A,,Clear,200,2013-10-01 01:15:00
8:35 PM,58.3,42.8,56,29.76,10.0,South,4.6,-,N/A,,Clear,190,2013-10-01 01:35:00
8:55 PM,58.1,42.8,57,29.77,10.0,South,3.5,-,N/A,,Clear,180,2013-10-01 01:55:00
9:15 PM,57.4,43.0,59,29.77,10.0,South,3.5,-,N/A,,Clear,180,2013-10-01 02:15:00
9:35 PM,57.0,43.0,59,29.77,10.0,South,3.5,-,N/A,,Clear,180,2013-10-01 02:35:00
9:55 PM,56.7,43.2,61,29.76,10.0,Calm,Calm,-,N/A,,Clear,0,2013-10-01 02:55:00
10:15 PM,56.5,43.3,61,29.77,10.0,South,3.5,-,N/A,,Clear,180,2013-10-01 03:15:00
10:35 PM,56.5,43.3,61,29.77,10.0,South,4.6,-,N/A,,Clear,190,2013-10-01 03:35:00
10:55 PM,56.5,43.2,61,29.76,10.0,South,5.8,-,N/A,,Clear,170,2013-10-01 03:55:00
11:15 PM,56.7,43.7,62,29.76,10.0,South,3.5,-,N/A,,Clear,190,2013-10-01 04:15:00
11:35 PM,56.3,43.7,63,29.76,10.0,South,3.5,-,N/A,,Clear,180,2013-10-01 04:35:00
11:55 PM,56.5,43.7,62,29.75,10.0,Calm,Calm,-,N/A,,Clear,0,2013-10-01 04:55:00